Hourly Weather Munsingen

Today, 20 September, Monday

Time Temperature Precipitation Wind Pressure Humidity
00:00 +11°C° 0 mm 0 mps 713 mmHg 95%
01:00 +11°C° 0 mm 0 mps 713 mmHg 95%
02:00 +11°C° 0 mm 0 mps 713 mmHg 95%
03:00 +11°C° 0 mm 0 mps 713 mmHg 95%
04:00 +11°C° 0 mm 0 mps 713 mmHg 95%
05:00 +11°C° 0 mm 0 mps 713 mmHg 94%
06:00 +11°C° 0 mm 0 mps 713 mmHg 94%
07:00 +11°C° 0 mm 0 mps 713 mmHg 94%
08:00 +12°C° 0.1 mm 0 mps 713 mmHg 93%
09:00 +12°C° 0.1 mm 0 mps 714 mmHg 92%
10:00 +13°C° 0.1 mm 0 mps 714 mmHg 91%
11:00 +13°C° 0.1 mm 0 mps 714 mmHg 88%
12:00 +14°C° 0.1 mm 0 mps 714 mmHg 86%
13:00 +14°C° 0.1 mm 0 mps 714 mmHg 83%
14:00 +14°C° 0.2 mm 0 mps 714 mmHg 82%
15:00 +15°C° 0.2 mm 0 mps 714 mmHg 81%
16:00 +15°C° 0.2 mm 0 mps 714 mmHg 80%
17:00 +14°C° 0.2 mm 0 mps 714 mmHg 84%
18:00 +13°C° 0.2 mm 0 mps 714 mmHg 88%
19:00 +12°C° 0.2 mm 0 mps 715 mmHg 91%
20:00 +13°C° 0 mm 1 mps 715 mmHg 92%
21:00 +12°C° 0 mm 1 mps 716 mmHg 93%
22:00 +12°C° 0 mm 1 mps 716 mmHg 93%
23:00 +11°C° 0 mm 1 mps 716 mmHg 94%

Tomorrow, 21 September, Tuesday

Time Temperature Precipitation Wind Pressure Humidity
00:00 +11°C° 0 mm 1 mps 716 mmHg 94%
01:00 +11°C° 0 mm 1 mps 716 mmHg 94%
02:00 +10°C° 0 mm 1 mps 717 mmHg 95%
03:00 +10°C° 0 mm 1 mps 717 mmHg 95%
04:00 +10°C° 0 mm 1 mps 717 mmHg 95%
05:00 +10°C° 0 mm 1 mps 717 mmHg 95%
06:00 +10°C° 0 mm 1 mps 718 mmHg 94%
07:00 +10°C° 0 mm 1 mps 718 mmHg 94%
08:00 +12°C° 0 mm 1 mps 718 mmHg 89%
09:00 +14°C° 0 mm 2 mps 718 mmHg 84%
10:00 +15°C° 0 mm 2 mps 719 mmHg 79%
11:00 +17°C° 0 mm 2 mps 719 mmHg 72%
12:00 +18°C° 0 mm 2 mps 719 mmHg 65%
13:00 +19°C° 0 mm 3 mps 719 mmHg 58%
14:00 +19°C° 0 mm 3 mps 719 mmHg 59%
15:00 +18°C° 0 mm 3 mps 719 mmHg 60%
16:00 +18°C° 0 mm 2 mps 719 mmHg 61%
17:00 +16°C° 0 mm 2 mps 719 mmHg 71%
18:00 +14°C° 0 mm 2 mps 719 mmHg 80%
19:00 +12°C° 0 mm 1 mps 719 mmHg 89%
20:00 +12°C° 0 mm 1 mps 720 mmHg 91%
21:00 +11°C° 0 mm 1 mps 720 mmHg 92%
22:00 +11°C° 0 mm 1 mps 720 mmHg 93%
23:00 +10°C° 0 mm 1 mps 720 mmHg 93%

Day after tomorrow, 22 September, Wednesday

Time Temperature Precipitation Wind Pressure Humidity
00:00 +10°C° 0 mm 1 mps 720 mmHg 92%
01:00 +10°C° 0 mm 1 mps 720 mmHg 92%
02:00 +10°C° 0 mm 1 mps 720 mmHg 91%
03:00 +9°C° 0 mm 1 mps 719 mmHg 91%
04:00 +9°C° 0 mm 1 mps 719 mmHg 90%
05:00 +9°C° 0 mm 1 mps 719 mmHg 89%
06:00 +9°C° 0 mm 1 mps 719 mmHg 89%
07:00 +9°C° 0 mm 1 mps 719 mmHg 88%
08:00 +12°C° 0 mm 1 mps 720 mmHg 81%
09:00 +14°C° 0 mm 1 mps 720 mmHg 74%
10:00 +16°C° 0 mm 1 mps 720 mmHg 67%
11:00 +17°C° 0 mm 2 mps 720 mmHg 62%
12:00 +18°C° 0 mm 2 mps 719 mmHg 58%
13:00 +19°C° 0 mm 2 mps 719 mmHg 54%
14:00 +19°C° 0 mm 3 mps 719 mmHg 55%
15:00 +19°C° 0 mm 3 mps 719 mmHg 56%
16:00 +19°C° 0 mm 3 mps 718 mmHg 56%
17:00 +17°C° 0 mm 2 mps 718 mmHg 66%
18:00 +15°C° 0 mm 2 mps 718 mmHg 76%
19:00 +13°C° 0 mm 1 mps 718 mmHg 86%
20:00 +12°C° 0 mm 1 mps 717 mmHg 87%
21:00 +12°C° 0 mm 1 mps 717 mmHg 89%
22:00 +11°C° 0 mm 1 mps 717 mmHg 90%
23:00 +11°C° 0 mm 1 mps 717 mmHg 90%

23 September, Thursday

Time Temperature Precipitation Wind Pressure Humidity
00:00 +11°C° 0 mm 1 mps 717 mmHg 90%
01:00 +10°C° 0 mm 1 mps 717 mmHg 89%
02:00 +10°C° 0 mm 1 mps 717 mmHg 89%
03:00 +10°C° 0 mm 1 mps 716 mmHg 88%
04:00 +10°C° 0 mm 1 mps 716 mmHg 88%
05:00 +10°C° 0 mm 1 mps 716 mmHg 87%
06:00 +10°C° 0 mm 1 mps 716 mmHg 85%
07:00 +10°C° 0 mm 1 mps 716 mmHg 84%
08:00 +13°C° 0 mm 1 mps 716 mmHg 77%
09:00 +15°C° 0 mm 1 mps 717 mmHg 70%
10:00 +18°C° 0 mm 1 mps 717 mmHg 63%
11:00 +20°C° 0 mm 1 mps 717 mmHg 58%
12:00 +21°C° 0 mm 1 mps 716 mmHg 54%
13:00 +23°C° 0 mm 1 mps 716 mmHg 50%
14:00 +23°C° 0 mm 1 mps 716 mmHg 51%
15:00 +23°C° 0 mm 1 mps 715 mmHg 52%
16:00 +23°C° 0 mm 1 mps 715 mmHg 53%
17:00 +20°C° 0 mm 1 mps 715 mmHg 64%
18:00 +18°C° 0 mm 1 mps 715 mmHg 75%
19:00 +14°C° 0 mm 1 mps 715 mmHg 86%
20:00 +14°C° 0 mm 1 mps 715 mmHg 87%
21:00 +13°C° 0 mm 1 mps 715 mmHg 87%
22:00 +13°C° 0 mm 1 mps 715 mmHg 87%
23:00 +13°C° 0 mm 1 mps 715 mmHg 86%

24 September, Friday

Time Temperature Precipitation Wind Pressure Humidity
00:00 +12°C° 0 mm 1 mps 715 mmHg 85%
01:00 +12°C° 0 mm 1 mps 715 mmHg 83%
02:00 +12°C° 0 mm 1 mps 715 mmHg 82%
03:00 +12°C° 0 mm 1 mps 714 mmHg 81%
04:00 +12°C° 0 mm 1 mps 714 mmHg 81%
05:00 +12°C° 0 mm 1 mps 714 mmHg 80%
06:00 +12°C° 0 mm 1 mps 714 mmHg 79%
07:00 +12°C° 0 mm 1 mps 714 mmHg 78%
08:00 +15°C° 0 mm 1 mps 714 mmHg 71%
09:00 +18°C° 0 mm 1 mps 714 mmHg 63%
10:00 +21°C° 0 mm 1 mps 715 mmHg 56%
11:00 +22°C° 0 mm 1 mps 714 mmHg 53%
12:00 +23°C° 0 mm 1 mps 714 mmHg 50%
13:00 +24°C° 0 mm 2 mps 714 mmHg 47%
14:00 +24°C° 0 mm 2 mps 714 mmHg 49%
15:00 +24°C° 0 mm 2 mps 713 mmHg 52%
16:00 +23°C° 0 mm 2 mps 713 mmHg 54%
17:00 +20°C° 0 mm 2 mps 713 mmHg 63%
18:00 +19°C° 0 mm 1 mps 714 mmHg 72%
19:00 +16°C° 0 mm 1 mps 714 mmHg 81%
20:00 +15°C° 0 mm 1 mps 714 mmHg 82%
21:00 +15°C° 0 mm 1 mps 714 mmHg 82%
22:00 +14°C° 0 mm 1 mps 714 mmHg 83%
23:00 +14°C° 0 mm 1 mps 714 mmHg 83%

25 September, Saturday

Time Temperature Precipitation Wind Pressure Humidity
00:00 +14°C° 0 mm 1 mps 714 mmHg 83%
01:00 +13°C° 0 mm 1 mps 714 mmHg 83%
02:00 +13°C° 0 mm 1 mps 714 mmHg 83%
03:00 +13°C° 0 mm 1 mps 714 mmHg 84%
04:00 +13°C° 0 mm 1 mps 714 mmHg 84%
05:00 +13°C° 0 mm 1 mps 714 mmHg 83%
06:00 +13°C° 0 mm 1 mps 714 mmHg 83%
07:00 +13°C° 0 mm 1 mps 714 mmHg 82%
08:00 +16°C° 0 mm 1 mps 714 mmHg 74%
09:00 +20°C° 0 mm 1 mps 714 mmHg 66%
10:00 +22°C° 0 mm 1 mps 715 mmHg 57%
11:00 +23°C° 0 mm 1 mps 714 mmHg 55%
12:00 +24°C° 0 mm 1 mps 714 mmHg 52%
13:00 +25°C° 0 mm 1 mps 714 mmHg 50%
14:00 +25°C° 0 mm 1 mps 714 mmHg 52%
15:00 +25°C° 0 mm 1 mps 714 mmHg 53%
16:00 +25°C° 0 mm 1 mps 713 mmHg 55%
17:00 +23°C° 0 mm 1 mps 713 mmHg 64%
18:00 +20°C° 0 mm 1 mps 713 mmHg 73%
19:00 +18°C° 0 mm 1 mps 713 mmHg 82%
20:00 +18°C° 0 mm 1 mps 713 mmHg 83%
21:00 +16°C° 0 mm 1 mps 713 mmHg 83%
22:00 +16°C° 0 mm 1 mps 713 mmHg 83%
23:00 +16°C° 0 mm 1 mps 713 mmHg 82%
Show more

We Need Your Consent

Meteoprog and our Service Providers may store and access personal data such as cookies, device identifiers or other similar technologies on your device and process such data to personalise content and ads, as well as provide social media features and to analyse the traffic.

  • Store and/or access information on your device

    Cookies, device identifiers or other information can be stored or accessed on your device for the purposes indicated above.

  • Personalised ads and content, ad and content measurement, audience insights, and products development

    Ads and content can be personalised based on a profile. More data can be added to better personalise ads and content. Ad and content performance can be measured. Insights about the audience who saw the ads and content can be derived. Such data can be used to develop or improve user’s experience, systems and software.

By clicking ‘I Agree’ you will allow the use of indicated cookies, device identifiers, web beacons or other similar technologies. Your settings can be changed in the browser on your device.

For certain purposes, legitimate interests may be relied on, rather than consent. You can read more about this in our Privacy and Cookie Policy.